Starlink 11619

operational
NORAD ID: 63272 Int'l Des: 2025-053 Owner: SPXS Country: US Constellation: starlink
LEOCIRCULAR

Starlink 11619について

説明を読み込み中...

リアルタイム位置

3D地球を読み込み中...

次回通過

高度履歴

Altitude vs Time

uPlot chart will show altitude changes over time

軌道要素

1 63272U 25053H 25307.63344426 .00256864 00000-0 19322-2 0 9994
2 63272 42.9988 152.0984 0001604 262.5902 97.4783 15.70985967 37845
Epoch: Nov 3, 2025 • Age: 18 hours

現在のステータス

高度 364.3 km
速度 7.69 km/s
衛星直下点 -35.44°S, 161.74°W
打ち上げ日 Mar 15, 2025
運用期間 0.6 years
タイプ internet

技術仕様

分類 Payload
質量 960.00 kg
乾燥質量 910.00 kg
総質量 960.00 kg
長さ 0.30 m
直径 4.10 m
スパン 29.00 m
形状 Box + pan
製造者 SPXS
バスタイプ Starlink V2MD
フェーズステータス In Orbit
所有者/国 SPXS/US

大規模コンステレーション

Loading constellations...